Hourly Weather Bolshie Pischevicy

Today, 26 July, Monday

Time Temperature Precipitation Wind Pressure Humidity
00:00 +16°C° 0 mm 1 mps 758 mmHg 68%
01:00 +16°C° 0 mm 1 mps 758 mmHg 70%
02:00 +15°C° 0 mm 1 mps 758 mmHg 71%
03:00 +15°C° 0 mm 1 mps 758 mmHg 71%
04:00 +15°C° 0 mm 1 mps 758 mmHg 72%
05:00 +15°C° 0 mm 1 mps 759 mmHg 73%
06:00 +19°C° 0 mm 1 mps 759 mmHg 65%
07:00 +19°C° 0 mm 0 mps 759 mmHg 57%
08:00 +21°C° 0 mm 0 mps 759 mmHg 49%
09:00 +23°C° 0 mm 0 mps 759 mmHg 45%
10:00 +25°C° 0 mm 0 mps 759 mmHg 40%
11:00 +27°C° 0 mm 0 mps 759 mmHg 35%
12:00 +27°C° 0 mm 0 mps 758 mmHg 34%
13:00 +28°C° 0 mm 0 mps 758 mmHg 32%
14:00 +29°C° 0 mm 0 mps 758 mmHg 31%
15:00 +28°C° 0 mm 0 mps 758 mmHg 32%
16:00 +30°C° 0 mm 1 mps 758 mmHg 32%
17:00 +30°C° 0 mm 1 mps 757 mmHg 33%
18:00 +28°C° 0 mm 1 mps 757 mmHg 41%
19:00 +25°C° 0 mm 1 mps 757 mmHg 50%
20:00 +23°C° 0 mm 2 mps 757 mmHg 59%
21:00 +21°C° 0 mm 2 mps 757 mmHg 61%
22:00 +20°C° 0 mm 2 mps 758 mmHg 63%
23:00 +19°C° 0 mm 2 mps 758 mmHg 65%

Tomorrow, 27 July, Tuesday

Time Temperature Precipitation Wind Pressure Humidity
00:00 +19°C° 0 mm 2 mps 758 mmHg 66%
01:00 +18°C° 0 mm 2 mps 758 mmHg 66%
02:00 +18°C° 0 mm 2 mps 758 mmHg 66%
03:00 +18°C° 0 mm 2 mps 758 mmHg 68%
04:00 +18°C° 0 mm 2 mps 758 mmHg 69%
05:00 +18°C° 0 mm 2 mps 758 mmHg 71%
06:00 +20°C° 0 mm 2 mps 758 mmHg 65%
07:00 +23°C° 0 mm 2 mps 757 mmHg 58%
08:00 +25°C° 0 mm 2 mps 757 mmHg 52%
09:00 +27°C° 0 mm 2 mps 757 mmHg 48%
10:00 +29°C° 0 mm 2 mps 757 mmHg 43%
11:00 +30°C° 0 mm 2 mps 757 mmHg 39%
12:00 +31°C° 0 mm 3 mps 756 mmHg 37%
13:00 +31°C° 0 mm 3 mps 756 mmHg 34%
14:00 +33°C° 0 mm 3 mps 756 mmHg 32%
15:00 +31°C° 0 mm 3 mps 755 mmHg 35%
16:00 +31°C° 0 mm 3 mps 755 mmHg 37%
17:00 +30°C° 0 mm 3 mps 754 mmHg 40%
18:00 +28°C° 0 mm 3 mps 754 mmHg 47%
19:00 +27°C° 0 mm 3 mps 754 mmHg 54%
20:00 +25°C° 0 mm 2 mps 753 mmHg 61%
21:00 +24°C° 0 mm 2 mps 753 mmHg 63%
22:00 +23°C° 0 mm 2 mps 753 mmHg 65%
23:00 +21°C° 0 mm 2 mps 753 mmHg 67%

Day after tomorrow, 28 July, Wednesday

Time Temperature Precipitation Wind Pressure Humidity
00:00 +21°C° 0 mm 2 mps 753 mmHg 67%
01:00 +21°C° 0 mm 2 mps 752 mmHg 67%
02:00 +20°C° 0 mm 2 mps 752 mmHg 67%
03:00 +20°C° 0.2 mm 2 mps 751 mmHg 73%
04:00 +19°C° 0.2 mm 2 mps 751 mmHg 79%
05:00 +19°C° 0.2 mm 2 mps 750 mmHg 85%
06:00 +19°C° 0.6 mm 2 mps 750 mmHg 89%
07:00 +19°C° 0.6 mm 2 mps 750 mmHg 92%
08:00 +19°C° 0.6 mm 3 mps 750 mmHg 95%
09:00 +19°C° 0.4 mm 2 mps 750 mmHg 95%
10:00 +20°C° 0.4 mm 2 mps 749 mmHg 95%
11:00 +20°C° 0.4 mm 2 mps 749 mmHg 94%
12:00 +21°C° 1 mm 3 mps 749 mmHg 93%
13:00 +22°C° 1 mm 3 mps 749 mmHg 91%
14:00 +22°C° 1 mm 3 mps 749 mmHg 89%
15:00 +24°C° 0.5 mm 3 mps 748 mmHg 84%
16:00 +25°C° 0.5 mm 2 mps 748 mmHg 79%
17:00 +26°C° 0.5 mm 2 mps 748 mmHg 74%
18:00 +24°C° 0.2 mm 2 mps 748 mmHg 76%
19:00 +23°C° 0.2 mm 1 mps 748 mmHg 79%
20:00 +22°C° 0.2 mm 1 mps 748 mmHg 82%
21:00 +21°C° 0 mm 1 mps 748 mmHg 84%
22:00 +20°C° 0 mm 1 mps 748 mmHg 86%
23:00 +18°C° 0 mm 2 mps 748 mmHg 87%

29 July, Thursday

Time Temperature Precipitation Wind Pressure Humidity
00:00 +17°C° 0 mm 2 mps 748 mmHg 89%
01:00 +17°C° 0 mm 2 mps 748 mmHg 90%
02:00 +16°C° 0 mm 2 mps 748 mmHg 92%
03:00 +16°C° 0 mm 2 mps 748 mmHg 92%
04:00 +16°C° 0 mm 2 mps 748 mmHg 92%
05:00 +16°C° 0 mm 2 mps 748 mmHg 92%
06:00 +18°C° 0 mm 3 mps 748 mmHg 82%
07:00 +20°C° 0 mm 3 mps 747 mmHg 73%
08:00 +21°C° 0 mm 4 mps 747 mmHg 63%
09:00 +23°C° 0 mm 5 mps 747 mmHg 58%
10:00 +25°C° 0 mm 5 mps 747 mmHg 52%
11:00 +27°C° 0 mm 6 mps 747 mmHg 46%
12:00 +27°C° 0 mm 6 mps 747 mmHg 42%
13:00 +28°C° 0 mm 6 mps 746 mmHg 39%
14:00 +29°C° 0 mm 6 mps 746 mmHg 36%
15:00 +27°C° 0 mm 5 mps 746 mmHg 43%
16:00 +26°C° 0 mm 5 mps 746 mmHg 50%
17:00 +23°C° 0 mm 5 mps 746 mmHg 57%
18:00 +22°C° 0.1 mm 4 mps 747 mmHg 63%
19:00 +21°C° 0.1 mm 4 mps 747 mmHg 69%
20:00 +20°C° 0.1 mm 3 mps 747 mmHg 75%
21:00 +19°C° 0 mm 3 mps 747 mmHg 79%
22:00 +17°C° 0 mm 3 mps 747 mmHg 84%
23:00 +16°C° 0 mm 3 mps 747 mmHg 88%

30 July, Friday

Time Temperature Precipitation Wind Pressure Humidity
00:00 +16°C° 0 mm 3 mps 747 mmHg 87%
01:00 +16°C° 0 mm 3 mps 747 mmHg 85%
02:00 +16°C° 0 mm 3 mps 747 mmHg 84%
03:00 +14°C° 0 mm 3 mps 747 mmHg 84%
04:00 +14°C° 0 mm 4 mps 747 mmHg 85%
05:00 +14°C° 0 mm 4 mps 747 mmHg 86%
06:00 +17°C° 0 mm 4 mps 747 mmHg 79%
07:00 +17°C° 0 mm 5 mps 747 mmHg 71%
08:00 +20°C° 0 mm 5 mps 747 mmHg 64%
09:00 +21°C° 0 mm 5 mps 747 mmHg 57%
10:00 +23°C° 0 mm 5 mps 747 mmHg 50%
11:00 +25°C° 0 mm 5 mps 747 mmHg 42%
12:00 +25°C° 0 mm 5 mps 747 mmHg 43%
13:00 +25°C° 0 mm 5 mps 747 mmHg 43%
14:00 +26°C° 0 mm 5 mps 747 mmHg 43%
15:00 +26°C° 0 mm 4 mps 747 mmHg 44%
16:00 +25°C° 0 mm 4 mps 747 mmHg 46%
17:00 +25°C° 0 mm 3 mps 746 mmHg 47%
18:00 +24°C° 0 mm 3 mps 746 mmHg 53%
19:00 +21°C° 0 mm 2 mps 746 mmHg 59%
20:00 +20°C° 0 mm 1 mps 745 mmHg 65%
21:00 +19°C° 0 mm 2 mps 745 mmHg 65%
22:00 +18°C° 0 mm 2 mps 744 mmHg 65%
23:00 +18°C° 0 mm 2 mps 744 mmHg 65%

31 July, Saturday

Time Temperature Precipitation Wind Pressure Humidity
00:00 +18°C° 0.2 mm 2 mps 743 mmHg 72%
01:00 +17°C° 0.2 mm 2 mps 743 mmHg 79%
02:00 +17°C° 0.2 mm 2 mps 743 mmHg 86%
03:00 +17°C° 0.1 mm 3 mps 743 mmHg 89%
04:00 +18°C° 0.1 mm 3 mps 743 mmHg 91%
05:00 +18°C° 0.1 mm 4 mps 743 mmHg 94%
06:00 +18°C° 0 mm 4 mps 743 mmHg 87%
07:00 +17°C° 0 mm 5 mps 743 mmHg 81%
08:00 +19°C° 0 mm 5 mps 743 mmHg 74%
09:00 +20°C° 0 mm 5 mps 744 mmHg 66%
10:00 +21°C° 0 mm 5 mps 744 mmHg 59%
11:00 +22°C° 0 mm 5 mps 744 mmHg 52%
12:00 +23°C° 0 mm 5 mps 744 mmHg 50%
13:00 +23°C° 0 mm 5 mps 744 mmHg 49%
14:00 +25°C° 0 mm 5 mps 744 mmHg 47%
15:00 +23°C° 0 mm 5 mps 744 mmHg 47%
16:00 +23°C° 0 mm 5 mps 744 mmHg 46%
17:00 +23°C° 0 mm 5 mps 744 mmHg 46%
18:00 +23°C° 0 mm 5 mps 744 mmHg 49%
19:00 +22°C° 0 mm 5 mps 744 mmHg 52%
20:00 +21°C° 0 mm 5 mps 744 mmHg 56%
21:00 +20°C° 0 mm 5 mps 744 mmHg 58%
22:00 +20°C° 0 mm 5 mps 744 mmHg 60%
23:00 +19°C° 0 mm 5 mps 744 mmHg 62%
Show more

We Need Your Consent

Meteoprog and our Service Providers may store and access personal data such as cookies, device identifiers or other similar technologies on your device and process such data to personalise content and ads, as well as provide social media features and to analyse the traffic.

  • Store and/or access information on your device

    Cookies, device identifiers or other information can be stored or accessed on your device for the purposes indicated above.

  • Personalised ads and content, ad and content measurement, audience insights, and products development

    Ads and content can be personalised based on a profile. More data can be added to better personalise ads and content. Ad and content performance can be measured. Insights about the audience who saw the ads and content can be derived. Such data can be used to develop or improve user’s experience, systems and software.

By clicking ‘I Agree’ you will allow the use of indicated cookies, device identifiers, web beacons or other similar technologies. Your settings can be changed in the browser on your device.

For certain purposes, legitimate interests may be relied on, rather than consent. You can read more about this in our Privacy and Cookie Policy.